* Astronomy

Members Login
Post Info TOPIC: Comet 2006 T1 (Levy)


L

Posts: 131433
Date:
Comet P/2006 T1 (Levy)
Permalink  
 


Comet P/2006 T1 (Levy) will make a close pass (74.4 lunar distances, 0.1911 AU), travelling at 15.46 km/second, to the Earth-Moon system on the 21st January, 2012 @ 17:31 UT ±13:58.

See more

The Lunar Distance (LD), the distance between Earth and the Moon, equals 384,401 km, (or 0.00256 AU).



__________________


L

Posts: 131433
Date:
Comet 2006 T1 (Levy)
Permalink  
 


Comet 2006 T1 (Levy)
T 2006 Oct.  9.226 TT                                   MPC
q 1.07182 (2000.0) P Q
Peri. 181.745 -0.276725 -0.907090
Node 284.416 +0.885574 -0.112577
e 1.0 Incl. 19.117 +0.373071 -0.405603
From 40 observations 2006 Oct. 2-3.


Date    TT    R. A. (2000) Decl.     Delta      r     Elong.  Phase   m1    
2006 10 02 09 35.48 +16 12.2 1.458 1.079 47.7 43.4 11.1
2006 10 07 09 55.04 +12 56.6 1.465 1.072 47.1 43.0 11.1
2006 10 12 10 13.69 +09 39.1 1.477 1.073 46.6 42.5 11.2
2006 10 17 10 31.50 +06 22.5 1.493 1.080 46.3 41.9 11.2
2006 10 22 10 48.49 +03 09.2 1.512 1.093 46.2 41.1 11.3
2006 10 27 11 04.74 +00 01.2 1.534 1.111 46.3 40.3 11.4


See more

__________________
«First  <  1 2 | Page of 2  sorted by
Quick Reply

Please log in to post quick replies.



Create your own FREE Forum
Report Abuse
Powered by ActiveBoard